Time,TemperatureF,DewpointF,PressureIn,WindDirection,WindDirectionDegrees,WindSpeedMPH,WindSpeedGustMPH,Humidity,HourlyPrecipIn,Conditions,Clouds,dailyrainin,SolarRadiationWatts/m^2,SoftwareType,DateUTC
2013-11-09 00:43:00,50.0,48.0,-100.00,SSW,195,0.0,0.0,93,0.00,,,0.00,0.000000,,2013-11-09 06:43:00,
2013-11-09 00:54:00,50.0,48.0,-100.00,SSW,195,0.0,0.0,93,0.00,,,0.00,0.000000,,2013-11-09 06:54:00,
2013-11-09 01:02:00,50.0,48.0,-100.00,SSW,195,0.0,0.0,93,0.00,,,0.00,0.000000,,2013-11-09 07:02:00,
2013-11-09 01:42:00,51.0,48.0,-100.00,SSW,204,0.0,2.0,90,0.00,,,0.00,0.000000,,2013-11-09 07:42:00,
2013-11-09 01:53:00,51.0,48.0,-100.00,SSW,204,0.0,2.0,90,0.00,,,0.00,0.000000,,2013-11-09 07:53:00,
2013-11-09 02:02:00,51.0,48.0,-100.00,SSW,204,0.0,2.0,90,0.00,,,0.00,0.000000,,2013-11-09 08:02:00,
2013-11-09 02:22:00,52.0,49.0,-100.00,SE,134,0.0,4.0,88,0.00,,,0.00,0.000000,,2013-11-09 08:22:00,
2013-11-09 02:32:00,52.0,49.0,-100.00,SE,134,0.0,4.0,88,0.00,,,0.00,0.000000,,2013-11-09 08:32:00,
2013-11-09 02:42:00,52.0,49.0,-100.00,SE,134,0.0,4.0,88,0.00,,,0.00,0.000000,,2013-11-09 08:42:00,
2013-11-09 02:52:00,52.0,49.0,-100.00,SE,134,0.0,4.0,88,0.00,,,0.00,0.000000,,2013-11-09 08:52:00,
2013-11-09 03:02:00,52.0,49.0,-100.00,SE,134,0.0,4.0,88,0.00,,,0.00,0.000000,,2013-11-09 09:02:00,
2013-11-09 03:03:00,52.0,49.0,-100.00,SSE,147,0.0,3.0,88,0.00,,,0.00,0.000000,,2013-11-09 09:03:00,
2013-11-09 03:22:00,52.0,49.0,-100.00,SSE,147,0.0,3.0,88,0.00,,,0.00,0.000000,,2013-11-09 09:22:00,
2013-11-09 03:33:00,52.0,49.0,-100.00,SSE,147,0.0,3.0,88,0.00,,,0.00,0.000000,,2013-11-09 09:33:00,
2013-11-09 03:43:00,52.0,49.0,-100.00,SSE,147,0.0,3.0,88,0.00,,,0.00,0.000000,,2013-11-09 09:43:00,
2013-11-09 03:53:00,52.0,49.0,-100.00,SSE,147,0.0,3.0,88,0.00,,,0.00,0.000000,,2013-11-09 09:53:00,
2013-11-09 04:03:00,52.0,49.0,-100.00,SSE,163,0.0,2.0,88,0.00,,,0.00,0.000000,,2013-11-09 10:03:00,
2013-11-09 04:43:00,52.0,49.0,-100.00,SSE,163,0.0,2.0,88,0.00,,,0.00,0.000000,,2013-11-09 10:43:00,
2013-11-09 04:52:00,52.0,49.0,-100.00,SSE,163,0.0,2.0,88,0.00,,,0.00,0.000000,,2013-11-09 10:52:00,
2013-11-09 05:43:00,52.0,49.0,-100.00,West,264,0.0,2.0,89,0.00,,,0.00,0.000000,,2013-11-09 11:43:00,
2013-11-09 05:52:00,52.0,49.0,-100.00,West,264,0.0,2.0,89,0.00,,,0.00,0.000000,,2013-11-09 11:52:00,
2013-11-09 06:02:00,52.0,49.0,-100.00,West,264,0.0,2.0,89,0.00,,,0.00,0.000000,,2013-11-09 12:02:00,
2013-11-09 06:42:00,53.0,49.0,-100.00,SE,138,2.0,4.0,85,0.00,,,0.00,0.000000,,2013-11-09 12:42:00,
2013-11-09 06:52:00,53.0,49.0,-100.00,SE,138,2.0,4.0,85,0.00,,,0.00,0.000000,,2013-11-09 12:52:00,
2013-11-09 07:02:00,53.0,49.0,-100.00,SE,138,2.0,4.0,85,0.00,,,0.00,0.000000,,2013-11-09 13:02:00,
2013-11-09 07:22:00,53.0,47.0,-100.00,SSE,166,0.0,3.0,79,0.00,,,0.00,0.000000,,2013-11-09 13:22:00,
2013-11-09 07:32:00,53.0,47.0,-100.00,SSE,166,0.0,3.0,79,0.00,,,0.00,0.000000,,2013-11-09 13:32:00,
2013-11-09 07:42:00,53.0,47.0,-100.00,SSE,166,0.0,3.0,79,0.00,,,0.00,0.000000,,2013-11-09 13:42:00,
2013-11-09 07:52:00,53.0,47.0,-100.00,SSE,166,0.0,3.0,79,0.00,,,0.00,0.000000,,2013-11-09 13:52:00,
2013-11-09 08:02:00,53.0,47.0,-100.00,SSE,166,0.0,3.0,79,0.00,,,0.00,0.000000,,2013-11-09 14:02:00,
2013-11-09 08:42:00,53.0,47.0,-100.00,East,96,1.0,3.0,80,0.00,,,0.00,15.000000,,2013-11-09 14:42:00,
2013-11-09 08:52:00,53.0,47.0,-100.00,East,96,1.0,3.0,80,0.00,,,0.00,15.000000,,2013-11-09 14:52:00,
2013-11-09 09:02:00,53.0,47.0,-100.00,East,96,1.0,3.0,80,0.00,,,0.00,15.000000,,2013-11-09 15:02:00,
2013-11-09 09:03:00,54.0,47.0,-100.00,ESE,105,1.0,3.0,78,0.00,,,0.00,57.000000,,2013-11-09 15:03:00,
2013-11-09 09:44:00,54.0,47.0,-100.00,ESE,105,1.0,3.0,78,0.00,,,0.00,57.000000,,2013-11-09 15:44:00,
2013-11-09 09:54:00,54.0,47.0,-100.00,ESE,105,1.0,3.0,78,0.00,,,0.00,57.000000,,2013-11-09 15:54:00,
2013-11-09 10:03:00,56.0,47.0,-100.00,SE,145,3.0,6.0,72,0.00,,,0.00,111.000000,,2013-11-09 16:03:00,
2013-11-09 10:43:00,56.0,47.0,-100.00,SE,145,3.0,6.0,72,0.00,,,0.00,111.000000,,2013-11-09 16:43:00,
2013-11-09 10:53:00,56.0,47.0,-100.00,SE,145,3.0,6.0,72,0.00,,,0.00,111.000000,,2013-11-09 16:53:00,
2013-11-09 11:43:00,56.0,49.0,-100.00,East,90,1.0,5.0,76,0.00,,,0.00,75.000000,,2013-11-09 17:43:00,
2013-11-09 11:52:00,56.0,49.0,-100.00,East,90,1.0,5.0,76,0.00,,,0.00,75.000000,,2013-11-09 17:52:00,
2013-11-09 12:02:00,56.0,49.0,-100.00,East,90,1.0,5.0,76,0.00,,,0.00,75.000000,,2013-11-09 18:02:00,
2013-11-09 12:42:00,57.0,48.0,-100.00,East,87,2.0,5.0,72,0.00,,,0.00,136.000000,,2013-11-09 18:42:00,
2013-11-09 12:52:00,57.0,48.0,-100.00,East,87,2.0,5.0,72,0.00,,,0.00,136.000000,,2013-11-09 18:52:00,
2013-11-09 13:02:00,57.0,48.0,-100.00,East,87,2.0,5.0,72,0.00,,,0.00,136.000000,,2013-11-09 19:02:00,
2013-11-09 13:42:00,57.0,53.0,-100.00,WSW,245,0.0,4.0,88,0.01,,,0.01,87.000000,,2013-11-09 19:42:00,
2013-11-09 13:52:00,57.0,53.0,-100.00,WSW,245,0.0,4.0,88,0.01,,,0.01,87.000000,,2013-11-09 19:52:00,
2013-11-09 14:02:00,57.0,53.0,-100.00,WSW,245,0.0,4.0,88,0.01,,,0.01,87.000000,,2013-11-09 20:02:00,
2013-11-09 14:03:00,57.0,53.0,-100.00,East,98,1.0,3.0,86,0.00,,,0.01,79.000000,,2013-11-09 20:03:00,
2013-11-09 14:42:00,57.0,53.0,-100.00,East,98,1.0,3.0,86,0.00,,,0.01,79.000000,,2013-11-09 20:42:00,
2013-11-09 14:52:00,57.0,53.0,-100.00,East,98,1.0,3.0,86,0.00,,,0.01,79.000000,,2013-11-09 20:52:00,
2013-11-09 15:03:00,59.0,55.0,-100.00,East,90,3.0,6.0,86,0.00,,,0.01,134.000000,,2013-11-09 21:03:00,
2013-11-09 15:44:00,59.0,55.0,-100.00,East,90,3.0,6.0,86,0.00,,,0.01,134.000000,,2013-11-09 21:44:00,
2013-11-09 15:54:00,59.0,55.0,-100.00,East,90,3.0,6.0,86,0.00,,,0.01,134.000000,,2013-11-09 21:54:00,
2013-11-09 16:43:00,62.0,53.0,-100.00,ENE,74,3.0,8.0,72,0.00,,,0.01,232.000000,,2013-11-09 22:43:00,
2013-11-09 16:54:00,62.0,53.0,-100.00,ENE,74,3.0,8.0,72,0.00,,,0.01,232.000000,,2013-11-09 22:54:00,
2013-11-09 17:02:00,62.0,53.0,-100.00,ENE,74,3.0,8.0,72,0.00,,,0.01,232.000000,,2013-11-09 23:02:00,
2013-11-09 17:42:00,58.0,51.0,-100.00,NE,56,1.0,6.0,77,0.00,,,0.01,74.000000,,2013-11-09 23:42:00,
2013-11-09 17:53:00,58.0,51.0,-100.00,NE,56,1.0,6.0,77,0.00,,,0.01,74.000000,,2013-11-09 23:53:00,
2013-11-09 18:02:00,58.0,51.0,-100.00,NE,56,1.0,6.0,77,0.00,,,0.01,74.000000,,2013-11-10 00:02:00,
2013-11-09 18:22:00,56.0,51.0,-100.00,ENE,65,1.0,5.0,82,0.00,,,0.01,5.000000,,2013-11-10 00:22:00,
2013-11-09 18:32:00,56.0,51.0,-100.00,ENE,65,1.0,5.0,82,0.00,,,0.01,5.000000,,2013-11-10 00:32:00,
2013-11-09 18:42:00,56.0,51.0,-100.00,ENE,65,1.0,5.0,82,0.00,,,0.01,5.000000,,2013-11-10 00:42:00,
2013-11-09 18:52:00,56.0,51.0,-100.00,ENE,65,1.0,5.0,82,0.00,,,0.01,5.000000,,2013-11-10 00:52:00,
2013-11-09 19:02:00,56.0,51.0,-100.00,ENE,65,1.0,5.0,82,0.00,,,0.01,5.000000,,2013-11-10 01:02:00,
2013-11-09 19:42:00,56.0,50.0,-100.00,ENE,70,2.0,6.0,81,0.00,,,0.01,0.000000,,2013-11-10 01:42:00,
2013-11-09 19:52:00,56.0,50.0,-100.00,ENE,70,2.0,6.0,81,0.00,,,0.01,0.000000,,2013-11-10 01:52:00,
2013-11-09 20:01:00,56.0,50.0,-100.00,ENE,70,2.0,6.0,81,0.00,,,0.01,0.000000,,2013-11-10 02:01:00,
2013-11-09 20:03:00,55.0,50.0,-100.00,ENE,66,3.0,6.0,83,0.00,,,0.01,0.000000,,2013-11-10 02:03:00,
2013-11-09 20:42:00,55.0,50.0,-100.00,ENE,66,3.0,6.0,83,0.00,,,0.01,0.000000,,2013-11-10 02:42:00,
2013-11-09 20:52:00,55.0,50.0,-100.00,ENE,66,3.0,6.0,83,0.00,,,0.01,0.000000,,2013-11-10 02:52:00,
2013-11-09 21:44:00,54.0,49.0,-100.00,ENE,76,3.0,6.0,83,0.00,,,0.01,0.000000,,2013-11-10 03:44:00,
2013-11-09 21:54:00,54.0,49.0,-100.00,ENE,76,3.0,6.0,83,0.00,,,0.01,0.000000,,2013-11-10 03:54:00,
2013-11-09 22:02:00,-999.0,-99.9,-100.00,ENE,76,3.0,6.0,-999,-99.99,,,-99.99,0.000000,,2013-11-10 04:02:00,
2013-11-09 22:03:00,54.0,49.0,-100.00,East,90,2.0,5.0,83,0.00,,,0.01,0.000000,,2013-11-10 04:03:00,
2013-11-09 22:43:00,54.0,49.0,-100.00,East,90,2.0,5.0,83,0.00,,,0.01,0.000000,,2013-11-10 04:43:00,
2013-11-09 22:52:00,54.0,49.0,-100.00,East,90,2.0,5.0,83,0.00,,,0.01,0.000000,,2013-11-10 04:52:00,
2013-11-09 23:43:00,54.0,47.0,-100.00,ESE,103,3.0,7.0,78,0.00,,,0.01,0.000000,,2013-11-10 05:43:00,
2013-11-09 23:54:00,54.0,47.0,-100.00,ESE,103,3.0,7.0,78,0.00,,,0.01,0.000000,,2013-11-10 05:54:00,